Time,TemperatureF,DewpointF,PressureIn,WindDirection,WindDirectionDegrees,WindSpeedMPH,WindSpeedGustMPH,Humidity,HourlyPrecipIn,Conditions,Clouds,dailyrainin,SolarRadiationWatts/m^2,SoftwareType,DateUTC
2013-09-10 00:01:00,73.0,69.0,-100.00,SSE,153,9.0,14.0,88,0.02,,,0.36,1.000000,,2013-09-10 07:01:00,
2013-09-10 00:12:00,73.0,69.0,-100.00,SSE,153,9.0,14.0,88,0.02,,,0.36,1.000000,,2013-09-10 07:12:00,
2013-09-10 00:42:00,74.0,69.0,-100.00,North,1,8.0,14.0,85,0.00,,,0.36,1.000000,,2013-09-10 07:42:00,
2013-09-10 00:52:00,74.0,69.0,-100.00,North,1,8.0,14.0,85,0.00,,,0.36,1.000000,,2013-09-10 07:52:00,
2013-09-10 01:02:00,74.0,69.0,-100.00,North,1,8.0,14.0,85,0.00,,,0.36,1.000000,,2013-09-10 08:02:00,
2013-09-10 01:11:00,74.0,69.0,-100.00,North,1,8.0,14.0,85,0.00,,,0.36,1.000000,,2013-09-10 08:11:00,
2013-09-10 01:42:00,74.0,70.0,-100.00,North,10,6.0,14.0,86,0.13,,,0.49,1.000000,,2013-09-10 08:42:00,
2013-09-10 01:52:00,74.0,70.0,-100.00,North,10,6.0,14.0,86,0.13,,,0.49,1.000000,,2013-09-10 08:52:00,
2013-09-10 02:02:00,74.0,70.0,-100.00,North,10,6.0,14.0,86,0.13,,,0.49,1.000000,,2013-09-10 09:02:00,
2013-09-10 02:11:00,74.0,70.0,-100.00,North,10,6.0,14.0,86,0.13,,,0.49,1.000000,,2013-09-10 09:11:00,
2013-09-10 02:43:00,75.0,71.0,-100.00,ESE,110,5.0,8.0,86,0.01,,,0.50,1.000000,,2013-09-10 09:43:00,
2013-09-10 02:54:00,75.0,71.0,-100.00,ESE,110,5.0,8.0,86,0.01,,,0.50,1.000000,,2013-09-10 09:54:00,
2013-09-10 03:03:00,75.0,71.0,-100.00,ESE,110,5.0,8.0,86,0.01,,,0.50,1.000000,,2013-09-10 10:03:00,
2013-09-10 03:13:00,75.0,71.0,-100.00,ESE,110,5.0,8.0,86,0.01,,,0.50,1.000000,,2013-09-10 10:13:00,
2013-09-10 03:43:00,74.0,72.0,-100.00,WSW,242,0.0,8.0,93,0.00,,,0.50,1.000000,,2013-09-10 10:43:00,
2013-09-10 03:53:00,74.0,72.0,-100.00,WSW,242,0.0,8.0,93,0.00,,,0.50,1.000000,,2013-09-10 10:53:00,
2013-09-10 04:03:00,74.0,72.0,-100.00,WSW,242,0.0,8.0,93,0.00,,,0.50,1.000000,,2013-09-10 11:03:00,
2013-09-10 04:11:00,74.0,72.0,-100.00,WSW,242,0.0,8.0,93,0.00,,,0.50,1.000000,,2013-09-10 11:11:00,
2013-09-10 06:52:00,73.0,71.0,-100.00,NNE,23,0.0,0.0,94,-99.99,,,0.52,1.000000,,2013-09-10 13:52:00,
2013-09-10 07:02:00,73.0,71.0,-100.00,NNE,23,0.0,0.0,94,-99.99,,,0.52,1.000000,,2013-09-10 14:02:00,
2013-09-10 07:11:00,73.0,71.0,-100.00,NNE,23,0.0,0.0,94,-99.99,,,0.52,1.000000,,2013-09-10 14:11:00,
2013-09-10 07:42:00,74.0,73.0,-100.00,WSW,247,0.0,0.0,98,0.00,,,0.52,34.000000,,2013-09-10 14:42:00,
2013-09-10 07:52:00,74.0,73.0,-100.00,WSW,247,0.0,0.0,98,0.00,,,0.52,34.000000,,2013-09-10 14:52:00,
2013-09-10 08:02:00,74.0,73.0,-100.00,WSW,247,0.0,0.0,98,0.00,,,0.52,34.000000,,2013-09-10 15:02:00,
2013-09-10 08:11:00,74.0,73.0,-100.00,WSW,247,0.0,0.0,98,0.00,,,0.52,34.000000,,2013-09-10 15:11:00,
2013-09-10 08:43:00,75.0,72.0,-100.00,SW,228,3.0,5.0,90,0.00,,,0.52,164.000000,,2013-09-10 15:43:00,
2013-09-10 08:54:00,75.0,72.0,-100.00,SW,228,3.0,5.0,90,0.00,,,0.52,164.000000,,2013-09-10 15:54:00,
2013-09-10 09:03:00,75.0,72.0,-100.00,SW,228,3.0,5.0,90,0.00,,,0.52,164.000000,,2013-09-10 16:03:00,
2013-09-10 09:12:00,75.0,72.0,-100.00,SW,228,3.0,5.0,90,0.00,,,0.52,164.000000,,2013-09-10 16:12:00,
2013-09-10 09:43:00,80.0,69.0,-100.00,SSW,207,2.0,4.0,70,0.00,,,0.52,391.000000,,2013-09-10 16:43:00,
2013-09-10 09:53:00,80.0,69.0,-100.00,SSW,207,2.0,4.0,70,0.00,,,0.52,391.000000,,2013-09-10 16:53:00,
2013-09-10 10:03:00,80.0,69.0,-100.00,SSW,207,2.0,4.0,70,0.00,,,0.52,391.000000,,2013-09-10 17:03:00,
2013-09-10 10:12:00,80.0,69.0,-100.00,SSW,207,2.0,4.0,70,0.00,,,0.52,391.000000,,2013-09-10 17:12:00,
2013-09-10 10:43:00,85.0,69.0,-100.00,ESE,122,2.0,4.0,59,0.00,,,0.52,666.000000,,2013-09-10 17:43:00,
2013-09-10 10:52:00,85.0,69.0,-100.00,ESE,122,2.0,4.0,59,0.00,,,0.52,666.000000,,2013-09-10 17:52:00,
2013-09-10 11:02:00,85.0,69.0,-100.00,ESE,122,2.0,4.0,59,0.00,,,0.52,666.000000,,2013-09-10 18:02:00,
2013-09-10 11:12:00,85.0,69.0,-100.00,ESE,122,2.0,4.0,59,0.00,,,0.52,666.000000,,2013-09-10 18:12:00,
2013-09-10 11:43:00,88.0,69.0,-100.00,South,173,2.0,6.0,54,0.00,,,0.52,805.000000,,2013-09-10 18:43:00,
2013-09-10 11:52:00,88.0,69.0,-100.00,South,173,2.0,6.0,54,0.00,,,0.52,805.000000,,2013-09-10 18:52:00,
2013-09-10 12:02:00,88.0,69.0,-100.00,South,173,2.0,6.0,54,0.00,,,0.52,805.000000,,2013-09-10 19:02:00,
2013-09-10 12:11:00,88.0,69.0,-100.00,South,173,2.0,6.0,54,0.00,,,0.52,805.000000,,2013-09-10 19:11:00,
2013-09-10 12:42:00,89.0,69.0,-100.00,WSW,253,4.0,8.0,52,0.00,,,0.52,871.000000,,2013-09-10 19:42:00,
2013-09-10 12:52:00,89.0,69.0,-100.00,WSW,253,4.0,8.0,52,0.00,,,0.52,871.000000,,2013-09-10 19:52:00,
2013-09-10 13:02:00,89.0,69.0,-100.00,WSW,253,4.0,8.0,52,0.00,,,0.52,871.000000,,2013-09-10 20:02:00,
2013-09-10 13:11:00,89.0,69.0,-100.00,WSW,253,4.0,8.0,52,0.00,,,0.52,871.000000,,2013-09-10 20:11:00,
2013-09-10 13:42:00,90.0,68.0,-100.00,West,263,8.0,13.0,48,0.00,,,0.52,891.000000,,2013-09-10 20:42:00,
2013-09-10 13:52:00,90.0,68.0,-100.00,West,263,8.0,13.0,48,0.00,,,0.52,891.000000,,2013-09-10 20:52:00,
2013-09-10 14:02:00,90.0,68.0,-100.00,West,263,8.0,13.0,48,0.00,,,0.52,891.000000,,2013-09-10 21:02:00,
2013-09-10 14:11:00,90.0,68.0,-100.00,West,263,8.0,13.0,48,0.00,,,0.52,891.000000,,2013-09-10 21:11:00,
2013-09-10 14:44:00,92.0,65.0,-100.00,West,260,6.0,13.0,41,0.00,,,0.52,855.000000,,2013-09-10 21:44:00,
2013-09-10 14:54:00,92.0,65.0,-100.00,West,260,6.0,13.0,41,0.00,,,0.52,855.000000,,2013-09-10 21:54:00,
2013-09-10 15:04:00,92.0,65.0,-100.00,West,260,6.0,13.0,41,0.00,,,0.52,855.000000,,2013-09-10 22:04:00,
2013-09-10 15:13:00,92.0,65.0,-100.00,West,260,6.0,13.0,41,0.00,,,0.52,855.000000,,2013-09-10 22:13:00,
2013-09-10 15:42:00,93.0,64.0,-100.00,WNW,301,5.0,12.0,39,0.00,,,0.52,749.000000,,2013-09-10 22:42:00,
2013-09-10 15:54:00,93.0,64.0,-100.00,WNW,301,5.0,12.0,39,0.00,,,0.52,749.000000,,2013-09-10 22:54:00,
2013-09-10 16:03:00,93.0,64.0,-100.00,WNW,301,5.0,12.0,39,0.00,,,0.52,749.000000,,2013-09-10 23:03:00,
2013-09-10 16:13:00,93.0,64.0,-100.00,WNW,301,5.0,12.0,39,0.00,,,0.52,749.000000,,2013-09-10 23:13:00,
2013-09-10 16:42:00,95.0,65.0,-100.00,NW,308,3.0,9.0,37,0.00,,,0.52,586.000000,,2013-09-10 23:42:00,
2013-09-10 16:53:00,95.0,65.0,-100.00,NW,308,3.0,9.0,37,0.00,,,0.52,586.000000,,2013-09-10 23:53:00,
2013-09-10 17:02:00,95.0,65.0,-100.00,NW,308,3.0,9.0,37,0.00,,,0.52,586.000000,,2013-09-11 00:02:00,
2013-09-10 17:11:00,95.0,65.0,-100.00,NW,308,3.0,9.0,37,0.00,,,0.52,586.000000,,2013-09-11 00:11:00,
2013-09-10 17:42:00,93.0,64.0,-100.00,South,181,5.0,7.0,39,0.00,,,0.52,387.000000,,2013-09-11 00:42:00,
2013-09-10 17:52:00,93.0,64.0,-100.00,South,181,5.0,7.0,39,0.00,,,0.52,387.000000,,2013-09-11 00:52:00,
2013-09-10 18:01:00,93.0,64.0,-100.00,South,181,5.0,7.0,39,0.00,,,0.52,387.000000,,2013-09-11 01:01:00,
2013-09-10 18:11:00,93.0,64.0,-100.00,South,181,5.0,7.0,39,0.00,,,0.52,387.000000,,2013-09-11 01:11:00,
2013-09-10 18:42:00,91.0,66.0,-100.00,South,170,8.0,11.0,44,0.00,,,0.52,175.000000,,2013-09-11 01:42:00,
2013-09-10 18:53:00,91.0,66.0,-100.00,South,170,8.0,11.0,44,0.00,,,0.52,175.000000,,2013-09-11 01:53:00,
2013-09-10 19:02:00,91.0,66.0,-100.00,South,170,8.0,11.0,44,0.00,,,0.52,175.000000,,2013-09-11 02:02:00,
2013-09-10 19:11:00,91.0,66.0,-100.00,South,170,8.0,11.0,44,0.00,,,0.52,175.000000,,2013-09-11 02:11:00,
2013-09-10 19:43:00,87.0,67.0,-100.00,SSE,164,8.0,11.0,51,0.00,,,0.52,18.000000,,2013-09-11 02:43:00,
2013-09-10 19:52:00,87.0,67.0,-100.00,SSE,164,8.0,11.0,51,0.00,,,0.52,18.000000,,2013-09-11 02:52:00,
2013-09-10 20:02:00,87.0,67.0,-100.00,SSE,164,8.0,11.0,51,0.00,,,0.52,18.000000,,2013-09-11 03:02:00,
2013-09-10 20:12:00,87.0,67.0,-100.00,SSE,164,8.0,11.0,51,0.00,,,0.52,18.000000,,2013-09-11 03:12:00,
2013-09-10 20:45:00,86.0,66.0,-100.00,SSE,153,7.0,10.0,52,0.00,,,0.30,1.000000,,2013-09-11 03:45:00,
2013-09-10 20:54:00,86.0,66.0,-100.00,SSE,153,7.0,10.0,52,0.00,,,0.30,1.000000,,2013-09-11 03:54:00,
2013-09-10 21:04:00,86.0,66.0,-100.00,SSE,153,7.0,10.0,52,0.00,,,0.30,1.000000,,2013-09-11 04:04:00,
2013-09-10 21:14:00,86.0,66.0,-100.00,SSE,153,7.0,10.0,52,0.00,,,0.30,1.000000,,2013-09-11 04:14:00,
2013-09-10 21:44:00,85.0,67.0,-100.00,SSE,157,7.0,9.0,55,0.00,,,0.23,1.000000,,2013-09-11 04:44:00,
2013-09-10 21:54:00,85.0,67.0,-100.00,SSE,157,7.0,9.0,55,0.00,,,0.23,1.000000,,2013-09-11 04:54:00,
2013-09-10 22:03:00,85.0,67.0,-100.00,SSE,157,7.0,9.0,55,0.00,,,0.23,1.000000,,2013-09-11 05:03:00,
2013-09-10 22:12:00,85.0,67.0,-100.00,SSE,157,7.0,9.0,55,0.00,,,0.23,1.000000,,2013-09-11 05:12:00,
2013-09-10 22:43:00,83.0,71.0,-100.00,SSE,147,7.0,9.0,67,0.00,,,0.18,1.000000,,2013-09-11 05:43:00,
2013-09-10 22:53:00,83.0,71.0,-100.00,SSE,147,7.0,9.0,67,0.00,,,0.18,1.000000,,2013-09-11 05:53:00,
2013-09-10 23:02:00,83.0,71.0,-100.00,SSE,147,7.0,9.0,67,0.00,,,0.18,1.000000,,2013-09-11 06:02:00,
2013-09-10 23:12:00,83.0,71.0,-100.00,SSE,147,7.0,9.0,67,0.00,,,0.18,1.000000,,2013-09-11 06:12:00,
2013-09-10 23:42:00,82.0,74.0,-100.00,SE,146,7.0,10.0,78,0.00,,,0.16,1.000000,,2013-09-11 06:42:00,
2013-09-10 23:52:00,82.0,74.0,-100.00,SE,146,7.0,10.0,78,0.00,,,0.16,1.000000,,2013-09-11 06:52:00,